SDM6366 USTR-UUEE

Flight info

Callsign SDM6366
Flight time N/A
Altitude 38000
Route BEPA1Q BEPAR T448 BANAM T348 EKB M864 AGNOK T796 ORTIM L158 DIMGI DIMG3W
Aircraft B738/M-SDE1E2E3FGHIJ2J3J4J5M1RWXYZ/L

Departure

Time 2026-04-20 12:47
Airport Roshchino International Airport (USTR)

Arrival

Time N/A
Airport Sheremetyevo International Airport (UUEE)
Time Latitude Longitude Altitude Speed Heading
2026-04-20 11:50 57.17631 65.35316 340 ft 0 kts 45°
2026-04-20 12:33 57.17632 65.35318 339 ft 0 kts 44°
2026-04-20 12:34 57.17641 65.35334 334 ft 4 kts 43°
2026-04-20 12:34 57.17668 65.35350 336 ft 5 kts 345°
2026-04-20 12:34 57.17697 65.35308 339 ft 6 kts 314°
2026-04-20 12:35 57.17735 65.35235 338 ft 10 kts 314°
2026-04-20 12:35 57.17801 65.35114 338 ft 16 kts 314°
2026-04-20 12:35 57.17888 65.34953 338 ft 18 kts 315°
2026-04-20 12:35 57.17978 65.34782 338 ft 20 kts 313°
2026-04-20 12:36 57.18075 65.34603 335 ft 21 kts 315°
2026-04-20 12:36 57.18184 65.34405 337 ft 23 kts 315°
2026-04-20 12:36 57.18299 65.34188 337 ft 24 kts 313°
2026-04-20 12:36 57.18418 65.33969 337 ft 24 kts 315°
2026-04-20 12:37 57.18540 65.33744 339 ft 25 kts 315°
2026-04-20 12:37 57.18615 65.33591 339 ft 14 kts 299°
2026-04-20 12:37 57.18618 65.33443 339 ft 13 kts 267°
2026-04-20 12:37 57.18596 65.33319 336 ft 9 kts 226°
2026-04-20 12:38 57.18531 65.33197 333 ft 20 kts 227°
2026-04-20 12:38 57.18472 65.32931 330 ft 24 kts 269°
2026-04-20 12:38 57.18468 65.32633 328 ft 23 kts 268°
2026-04-20 12:38 57.18463 65.32344 329 ft 22 kts 269°
2026-04-20 12:39 57.18453 65.31787 347 ft 21 kts 259°
2026-04-20 12:39 57.18365 65.31580 352 ft 20 kts 227°
2026-04-20 12:39 57.18271 65.31390 361 ft 20 kts 228°
2026-04-20 12:40 57.18181 65.31205 362 ft 19 kts 227°
2026-04-20 12:40 57.18094 65.31029 366 ft 18 kts 228°
2026-04-20 12:40 57.18006 65.30851 370 ft 20 kts 228°
2026-04-20 12:40 57.17898 65.30632 374 ft 26 kts 227°
2026-04-20 12:41 57.17779 65.30391 377 ft 25 kts 228°
2026-04-20 12:41 57.17668 65.30167 380 ft 23 kts 227°
2026-04-20 12:41 57.17563 65.29953 383 ft 22 kts 227°
2026-04-20 12:41 57.17459 65.29744 384 ft 22 kts 229°
2026-04-20 12:42 57.17360 65.29541 386 ft 21 kts 227°
2026-04-20 12:42 57.17263 65.29344 386 ft 20 kts 227°
2026-04-20 12:42 57.17168 65.29152 387 ft 20 kts 227°
2026-04-20 12:42 57.17067 65.28945 386 ft 25 kts 228°
2026-04-20 12:43 57.16953 65.28718 385 ft 20 kts 229°
2026-04-20 12:43 57.16895 65.28599 384 ft 11 kts 227°
2026-04-20 12:43 57.16852 65.28492 383 ft 6 kts 262°
2026-04-20 12:43 57.16863 65.28416 383 ft 6 kts 287°
2026-04-20 12:44 57.16871 65.28369 383 ft 0 kts 287°
2026-04-20 12:44 57.16873 65.28356 383 ft 1 kts 287°
2026-04-20 12:44 57.16877 65.28334 382 ft 2 kts 288°
2026-04-20 12:45 57.16884 65.28297 382 ft 7 kts 289°
2026-04-20 12:45 57.16934 65.28167 379 ft 9 kts 355°
2026-04-20 12:45 57.16952 65.28180 380 ft 5 kts 32°
2026-04-20 12:45 57.16980 65.28229 381 ft 0 kts 48°
2026-04-20 12:46 57.16982 65.28233 381 ft 1 kts 48°
2026-04-20 12:46 57.16984 65.28238 381 ft 1 kts 48°
2026-04-20 12:46 57.17000 65.28271 381 ft 15 kts 48°
2026-04-20 12:46 57.17249 65.28772 385 ft 89 kts 47°
2026-04-20 12:47 57.17825 65.29941 384 ft 152 kts 47°
2026-04-20 12:47 57.18599 65.31496 953 ft 163 kts 47°
2026-04-20 12:47 57.19374 65.32919 2075 ft 155 kts 31°
2026-04-20 12:47 57.20468 65.33278 2569 ft 178 kts 343°
2026-04-20 12:48 57.21403 65.31899 3313 ft 174 kts 291°
2026-04-20 12:48 57.21558 65.29818 4359 ft 157 kts 265°
2026-04-20 12:48 57.21420 65.27846 5177 ft 161 kts 260°
2026-04-20 12:48 57.21244 65.25789 5891 ft 161 kts 260°
2026-04-20 12:49 57.21062 65.23694 5937 ft 172 kts 260°
2026-04-20 12:49 57.20878 65.21538 5966 ft 162 kts 260°
2026-04-20 12:49 57.20707 65.19506 5994 ft 159 kts 260°
2026-04-20 12:49 57.20533 65.17442 6073 ft 174 kts 260°
2026-04-20 12:50 57.20325 65.15001 6094 ft 210 kts 260°
2026-04-20 12:50 57.20083 65.12146 6193 ft 236 kts 260°
2026-04-20 12:50 57.19825 65.09093 6740 ft 244 kts 260°
2026-04-20 12:50 57.19562 65.05974 7508 ft 247 kts 259°
2026-04-20 12:51 57.19298 65.02846 8440 ft 248 kts 259°
2026-04-20 12:51 57.19024 64.99620 9110 ft 260 kts 259°
2026-04-20 12:51 57.18741 64.96297 9955 ft 263 kts 259°
2026-04-20 12:51 57.18456 64.92949 10765 ft 265 kts 259°
2026-04-20 12:52 57.18169 64.89594 11610 ft 267 kts 259°
2026-04-20 12:52 57.17868 64.86091 11933 ft 289 kts 259°
2026-04-20 12:52 57.17543 64.82323 12385 ft 303 kts 260°
2026-04-20 12:52 57.17206 64.78412 13186 ft 306 kts 260°
2026-04-20 12:53 57.16870 64.74535 14040 ft 307 kts 260°
2026-04-20 12:53 57.16530 64.70613 14721 ft 312 kts 260°
2026-04-20 12:53 57.16183 64.66628 15354 ft 317 kts 261°
2026-04-20 12:53 57.15825 64.62533 16042 ft 322 kts 261°
2026-04-20 12:54 57.15465 64.58430 16710 ft 326 kts 261°
2026-04-20 12:54 57.15097 64.54270 17369 ft 331 kts 261°
2026-04-20 12:54 57.14724 64.50064 18017 ft 336 kts 261°
2026-04-20 12:54 57.14425 64.45764 18613 ft 340 kts 265°
2026-04-20 12:55 57.14276 64.41309 19294 ft 341 kts 267°
2026-04-20 12:55 57.14174 64.36998 19978 ft 341 kts 267°
2026-04-20 12:55 57.14070 64.32613 20619 ft 343 kts 266°
2026-04-20 12:55 57.13954 64.28202 21233 ft 345 kts 266°
2026-04-20 12:56 57.13828 64.23783 21850 ft 347 kts 266°
2026-04-20 12:56 57.13692 64.19333 22464 ft 349 kts 266°
2026-04-20 12:56 57.13550 64.14862 23076 ft 350 kts 265°
2026-04-20 12:56 57.13403 64.10371 23643 ft 352 kts 265°
2026-04-20 12:57 57.13253 64.05855 24099 ft 355 kts 265°
2026-04-20 12:57 57.13097 64.01245 24573 ft 357 kts 265°
2026-04-20 12:57 57.12941 63.96674 25023 ft 359 kts 265°
2026-04-20 12:57 57.12783 63.92086 25493 ft 361 kts 265°
2026-04-20 12:58 57.12623 63.87456 25935 ft 363 kts 265°
2026-04-20 12:58 57.12462 63.82875 26369 ft 364 kts 265°
2026-04-20 12:58 57.12290 63.78076 26714 ft 370 kts 265°
2026-04-20 12:58 57.12024 63.73304 26782 ft 380 kts 259°
2026-04-20 12:59 57.11487 63.68482 26907 ft 388 kts 257°
2026-04-20 12:59 57.10895 63.63575 27085 ft 395 kts 257°
2026-04-20 12:59 57.10292 63.58617 27395 ft 398 kts 257°
2026-04-20 12:59 57.09692 63.53661 27904 ft 396 kts 257°
2026-04-20 13:00 57.09102 63.48739 28502 ft 392 kts 257°
2026-04-20 13:00 57.08521 63.43866 29073 ft 389 kts 257°
2026-04-20 13:00 57.07943 63.39003 29532 ft 389 kts 257°
2026-04-20 13:00 57.07365 63.34138 29982 ft 388 kts 257°
2026-04-20 13:01 57.06790 63.29306 30422 ft 386 kts 257°
2026-04-20 13:01 57.06216 63.24498 30846 ft 385 kts 257°
2026-04-20 13:01 57.05642 63.19702 31220 ft 384 kts 257°
2026-04-20 13:01 57.05057 63.14835 31599 ft 383 kts 257°
2026-04-20 13:02 57.04480 63.10046 31998 ft 382 kts 257°
2026-04-20 13:02 57.03898 63.05235 32392 ft 381 kts 256°
2026-04-20 13:02 57.03321 63.00484 32755 ft 380 kts 256°
2026-04-20 13:02 57.02746 62.95763 33127 ft 379 kts 256°
2026-04-20 13:03 57.02170 62.91052 33515 ft 377 kts 256°
2026-04-20 13:03 57.01586 62.86287 33851 ft 377 kts 256°
2026-04-20 13:03 57.01009 62.81601 34153 ft 377 kts 256°
2026-04-20 13:03 57.00429 62.76906 34382 ft 378 kts 256°
2026-04-20 13:04 57.00043 62.73788 34502 ft 379 kts 256°
2026-04-20 13:04 56.99449 62.69003 34718 ft 380 kts 256°
2026-04-20 13:04 56.98863 62.64296 34752 ft 386 kts 256°
2026-04-20 13:05 56.97646 62.54584 34883 ft 395 kts 256°
2026-04-20 13:05 56.97024 62.49647 35012 ft 398 kts 256°
2026-04-20 13:05 56.96400 62.44701 35238 ft 398 kts 256°
2026-04-20 13:05 56.95765 62.39692 35483 ft 397 kts 256°
2026-04-20 13:06 56.95139 62.34766 35677 ft 398 kts 256°
2026-04-20 13:06 56.94506 62.29805 35853 ft 399 kts 256°
2026-04-20 13:06 56.93871 62.24847 36063 ft 400 kts 256°
2026-04-20 13:06 56.93233 62.19883 36254 ft 400 kts 256°
2026-04-20 13:07 56.92595 62.14933 36443 ft 401 kts 256°
2026-04-20 13:07 56.91950 62.09951 36630 ft 402 kts 256°
2026-04-20 13:07 56.91304 62.04971 36804 ft 402 kts 256°
2026-04-20 13:07 56.90655 61.99992 36997 ft 402 kts 256°
2026-04-20 13:08 56.90003 61.95005 37145 ft 404 kts 256°
2026-04-20 13:08 56.89346 61.89991 37270 ft 405 kts 256°
2026-04-20 13:08 56.88676 61.84904 37457 ft 406 kts 256°
2026-04-20 13:08 56.88014 61.79888 37653 ft 406 kts 256°
2026-04-20 13:09 56.87349 61.74871 37812 ft 406 kts 256°
2026-04-20 13:09 56.86682 61.69853 37945 ft 407 kts 256°
2026-04-20 13:09 56.86011 61.64822 37992 ft 408 kts 256°
2026-04-20 13:10 56.84661 61.54749 38002 ft 408 kts 256°
2026-04-20 13:10 56.83276 61.44489 37995 ft 407 kts 256°
2026-04-20 13:11 56.81902 61.34376 37996 ft 407 kts 256°
2026-04-20 13:11 56.80531 61.24353 37991 ft 407 kts 256°
2026-04-20 13:12 56.79154 61.14345 37991 ft 407 kts 256°
2026-04-20 13:12 56.77761 61.04286 37994 ft 406 kts 256°
2026-04-20 13:13 56.76369 60.94292 37994 ft 407 kts 255°
2026-04-20 13:13 56.74987 60.84295 37993 ft 407 kts 258°
2026-04-20 13:14 56.74654 60.74018 37985 ft 409 kts 275°
2026-04-20 13:14 56.75428 60.63785 37995 ft 410 kts 276°
2026-04-20 13:15 56.76171 60.53407 37990 ft 411 kts 275°
2026-04-20 13:15 56.76890 60.43002 37993 ft 411 kts 275°
2026-04-20 13:16 56.77597 60.32648 37991 ft 412 kts 275°
2026-04-20 13:16 56.78300 60.22269 37983 ft 412 kts 275°
2026-04-20 13:17 56.78994 60.11808 37984 ft 413 kts 275°
2026-04-20 13:17 56.79632 60.01390 37980 ft 413 kts 274°
2026-04-20 13:18 56.80254 59.90950 37978 ft 413 kts 274°
2026-04-20 13:18 56.80875 59.80457 37971 ft 414 kts 274°
2026-04-20 13:19 56.81487 59.70021 37970 ft 414 kts 274°
2026-04-20 13:19 56.82095 59.59506 37965 ft 414 kts 274°
2026-04-20 13:20 56.82595 59.50754 37966 ft 414 kts 274°
2026-04-20 13:20 56.83183 59.40307 37957 ft 413 kts 274°
2026-04-20 13:21 56.83761 59.29867 36798 ft 414 kts 275°
2026-04-20 13:21 56.84052 59.24579 37086 ft 411 kts 275°
2026-04-20 13:21 56.84335 59.19394 37318 ft 409 kts 275°
2026-04-20 13:21 56.84615 59.14222 37560 ft 407 kts 275°
2026-04-20 13:22 56.84891 59.09078 37761 ft 406 kts 275°
2026-04-20 13:22 56.85130 59.03939 37868 ft 407 kts 273°
2026-04-20 13:22 56.85264 58.98755 37937 ft 409 kts 271°
2026-04-20 13:23 56.85420 58.88231 38000 ft 415 kts 271°
2026-04-20 13:23 56.85565 58.77599 38012 ft 422 kts 271°
2026-04-20 13:24 56.85730 58.66707 38011 ft 429 kts 271°
2026-04-20 13:24 56.85900 58.55717 38010 ft 436 kts 271°
2026-04-20 13:25 56.86068 58.44481 38009 ft 443 kts 271°
2026-04-20 13:25 56.86228 58.33069 38011 ft 449 kts 271°
2026-04-20 13:26 56.86378 58.21603 38003 ft 453 kts 271°
2026-04-20 13:26 56.86518 58.10041 38002 ft 456 kts 271°
2026-04-20 13:27 56.86649 57.98374 37990 ft 454 kts 271°
2026-04-20 13:27 56.86766 57.86960 37990 ft 445 kts 270°
2026-04-20 13:28 56.86872 57.75645 38004 ft 444 kts 270°
2026-04-20 13:28 56.86968 57.64350 38002 ft 444 kts 270°
2026-04-20 13:29 56.87054 57.52978 38002 ft 444 kts 270°
2026-04-20 13:29 56.87130 57.41604 38004 ft 445 kts 270°
2026-04-20 13:30 56.87195 57.30255 38002 ft 446 kts 270°
2026-04-20 13:30 56.87250 57.18903 38003 ft 447 kts 270°
2026-04-20 13:31 56.87295 57.07518 38002 ft 448 kts 270°
2026-04-20 13:31 56.87330 56.96104 38002 ft 449 kts 270°
2026-04-20 13:32 56.87354 56.84436 38002 ft 450 kts 270°
2026-04-20 13:32 56.87368 56.72835 38001 ft 451 kts 270°
2026-04-20 13:33 56.87372 56.61380 38001 ft 451 kts 270°
2026-04-20 13:33 56.87367 56.49848 38002 ft 451 kts 269°
2026-04-20 13:34 56.87582 56.21714 38923 ft 441 kts 269°
2026-04-20 13:35 56.87639 56.16101 38689 ft 430 kts 269°
2026-04-20 13:35 56.87687 56.10625 38435 ft 420 kts 269°
2026-04-20 13:35 56.87731 56.05316 38166 ft 415 kts 269°
2026-04-20 13:35 56.87770 56.00042 38010 ft 413 kts 269°
2026-04-20 13:36 56.87755 55.94821 37922 ft 409 kts 263°
2026-04-20 13:36 56.86535 55.84728 37851 ft 412 kts 247°
2026-04-20 13:37 56.84239 55.74955 37843 ft 419 kts 246°
2026-04-20 13:37 56.81942 55.65120 37838 ft 422 kts 246°
2026-04-20 13:38 56.79644 55.55210 37833 ft 425 kts 246°
2026-04-20 13:38 56.77723 55.46933 37820 ft 420 kts 246°
2026-04-20 13:39 56.75467 55.37245 37822 ft 413 kts 246°
2026-04-20 13:39 56.73211 55.27602 37822 ft 413 kts 246°
2026-04-20 13:40 56.70946 55.17973 37821 ft 413 kts 246°
2026-04-20 13:40 56.68662 55.08300 37810 ft 414 kts 246°
2026-04-20 13:41 56.66377 54.98669 37808 ft 415 kts 246°
2026-04-20 13:41 56.64080 54.89032 37808 ft 416 kts 245°
2026-04-20 13:42 56.61768 54.79369 37801 ft 417 kts 245°
2026-04-20 13:42 56.58261 54.64798 37797 ft 419 kts 245°
2026-04-20 13:43 56.55916 54.55108 37785 ft 420 kts 245°
2026-04-20 13:43 56.53561 54.45417 37790 ft 420 kts 245°
2026-04-20 13:44 56.51197 54.35725 37788 ft 421 kts 245°
2026-04-20 13:44 56.48823 54.26050 37788 ft 421 kts 245°
2026-04-20 13:45 56.46435 54.16398 37779 ft 420 kts 245°
2026-04-20 13:45 56.44040 54.06753 37778 ft 420 kts 244°
2026-04-20 13:46 56.41641 53.97131 37770 ft 420 kts 244°
2026-04-20 13:46 56.39243 53.87522 37776 ft 419 kts 244°
2026-04-20 13:47 56.36846 53.77931 37777 ft 418 kts 244°
2026-04-20 13:47 56.34450 53.68376 37767 ft 418 kts 244°
2026-04-20 13:48 56.32039 53.58847 37770 ft 418 kts 244°
2026-04-20 13:48 56.29592 53.49357 37774 ft 417 kts 244°
2026-04-20 13:49 56.27138 53.39891 37771 ft 417 kts 244°
2026-04-20 13:49 56.24661 53.30356 37759 ft 418 kts 243°
2026-04-20 13:50 56.22198 53.20902 37762 ft 418 kts 243°
2026-04-20 13:50 56.19724 53.11446 37768 ft 418 kts 243°
2026-04-20 13:51 56.17207 53.01866 37757 ft 418 kts 243°
2026-04-20 13:51 56.14716 52.92422 37762 ft 419 kts 243°
2026-04-20 13:52 56.12213 52.82975 37746 ft 419 kts 243°
2026-04-20 13:52 56.09688 52.73476 37741 ft 420 kts 243°
2026-04-20 13:53 56.07153 52.63982 37738 ft 420 kts 243°
2026-04-20 13:53 56.04631 52.54548 37754 ft 421 kts 243°
2026-04-20 13:54 56.02110 52.45100 37745 ft 421 kts 243°
2026-04-20 13:54 55.99566 52.35593 37731 ft 421 kts 243°
2026-04-20 13:55 55.97010 52.26084 37725 ft 422 kts 243°
2026-04-20 13:55 55.94448 52.16596 37726 ft 422 kts 243°
2026-04-20 13:56 55.91892 52.07168 37725 ft 422 kts 242°
2026-04-20 13:56 55.89330 51.97759 37721 ft 422 kts 242°
2026-04-20 13:57 55.86759 51.88354 37720 ft 422 kts 242°
2026-04-20 13:57 55.84184 51.78971 37710 ft 422 kts 242°
2026-04-20 13:58 55.81599 51.69593 37712 ft 422 kts 242°
2026-04-20 13:58 55.79009 51.60231 37711 ft 422 kts 242°
2026-04-20 13:59 55.76414 51.50884 37699 ft 422 kts 242°
2026-04-20 13:59 55.74250 51.43119 37704 ft 421 kts 242°
2026-04-20 14:00 55.71789 51.33685 37698 ft 422 kts 245°
2026-04-20 14:00 55.69548 51.24045 37693 ft 422 kts 245°
2026-04-20 14:01 55.67315 51.14418 37692 ft 422 kts 245°
2026-04-20 14:01 55.65048 51.04801 37691 ft 422 kts 245°
2026-04-20 14:02 55.62765 50.95226 37682 ft 422 kts 245°
2026-04-20 14:02 55.60457 50.85598 37684 ft 422 kts 245°
2026-04-20 14:03 55.55908 50.66749 37671 ft 423 kts 245°
2026-04-20 14:04 55.53543 50.57010 37666 ft 423 kts 245°
2026-04-20 14:05 55.48892 50.37980 37659 ft 424 kts 244°
2026-04-20 14:05 55.46477 50.28163 37652 ft 425 kts 244°
2026-04-20 14:06 55.44099 50.18537 37647 ft 425 kts 244°
2026-04-20 14:06 55.41715 50.08921 37645 ft 426 kts 244°
2026-04-20 14:07 55.39606 49.99178 37637 ft 429 kts 255°
2026-04-20 14:07 55.39066 49.88675 37620 ft 436 kts 271°
2026-04-20 14:08 55.39647 49.78052 37635 ft 437 kts 272°
2026-04-20 14:08 55.40215 49.67406 37633 ft 438 kts 272°
2026-04-20 14:09 55.40739 49.56733 37631 ft 438 kts 272°
2026-04-20 14:09 55.41248 49.46039 37631 ft 439 kts 272°
2026-04-20 14:10 55.41748 49.35328 37634 ft 439 kts 272°
2026-04-20 14:10 55.42237 49.24549 37633 ft 439 kts 271°
2026-04-20 14:11 55.42713 49.13819 37627 ft 439 kts 271°
2026-04-20 14:11 55.43178 49.03166 37624 ft 439 kts 271°
2026-04-20 14:12 55.43638 48.92447 37618 ft 439 kts 271°
2026-04-20 14:12 55.44091 48.81661 37611 ft 439 kts 271°
2026-04-20 14:13 55.44533 48.70933 37609 ft 439 kts 271°
2026-04-20 14:13 55.44966 48.60204 37601 ft 439 kts 271°
2026-04-20 14:14 55.45839 48.49488 37603 ft 442 kts 284°
2026-04-20 14:14 55.47700 48.39141 37605 ft 443 kts 285°
2026-04-20 14:15 55.49542 48.28791 37602 ft 443 kts 284°
2026-04-20 14:15 55.51347 48.18403 37611 ft 442 kts 284°
2026-04-20 14:16 55.53127 48.08009 37610 ft 442 kts 284°
2026-04-20 14:16 55.54897 47.97605 37614 ft 443 kts 284°
2026-04-20 14:17 55.56686 47.87038 37613 ft 443 kts 284°
2026-04-20 14:17 55.58444 47.76587 37609 ft 443 kts 284°
2026-04-20 14:18 55.60217 47.65992 37602 ft 443 kts 284°
2026-04-20 14:18 55.61959 47.55515 37606 ft 444 kts 284°
2026-04-20 14:19 55.63681 47.45095 37621 ft 443 kts 283°
2026-04-20 14:19 55.65126 47.36308 37618 ft 443 kts 283°
2026-04-20 14:20 55.66841 47.25820 37622 ft 443 kts 283°
2026-04-20 14:20 55.68550 47.15313 37619 ft 444 kts 283°
2026-04-20 14:21 55.70248 47.04798 37632 ft 443 kts 283°
2026-04-20 14:21 55.71949 46.94202 37630 ft 443 kts 283°
2026-04-20 14:22 55.73629 46.83680 37637 ft 443 kts 283°
2026-04-20 14:22 55.75313 46.73073 37638 ft 443 kts 283°
2026-04-20 14:23 55.76978 46.62522 37642 ft 443 kts 283°
2026-04-20 14:23 55.78647 46.51880 37642 ft 443 kts 283°
2026-04-20 14:24 55.79730 46.41093 37663 ft 439 kts 270°
2026-04-20 14:24 55.80018 46.30251 37661 ft 439 kts 270°
2026-04-20 14:25 55.80326 46.19328 37660 ft 440 kts 271°
2026-04-20 14:25 55.80658 46.08393 37662 ft 440 kts 271°
2026-04-20 14:26 55.80989 45.97520 37672 ft 441 kts 271°
2026-04-20 14:26 55.81315 45.86566 37676 ft 441 kts 271°
2026-04-20 14:27 55.81628 45.75667 37679 ft 441 kts 271°
2026-04-20 14:27 55.81933 45.64682 37681 ft 442 kts 271°
2026-04-20 14:28 55.82229 45.53685 37691 ft 442 kts 270°
2026-04-20 14:28 55.82513 45.42756 37698 ft 443 kts 270°
2026-04-20 14:29 55.82789 45.31795 37699 ft 443 kts 270°
2026-04-20 14:29 55.83056 45.20768 37706 ft 443 kts 270°
2026-04-20 14:30 55.83313 45.09792 37703 ft 444 kts 270°
2026-04-20 14:30 55.83561 44.98812 37714 ft 444 kts 270°
2026-04-20 14:31 55.83800 44.87827 37719 ft 444 kts 270°
2026-04-20 14:31 55.84035 44.76763 37724 ft 444 kts 270°
2026-04-20 14:32 55.84261 44.65694 37725 ft 445 kts 270°
2026-04-20 14:32 55.84477 44.54628 37735 ft 445 kts 270°
2026-04-20 14:33 55.84683 44.43555 37738 ft 445 kts 270°
2026-04-20 14:33 55.84847 44.34396 37744 ft 445 kts 270°
2026-04-20 14:34 55.85034 44.23398 37744 ft 445 kts 269°
2026-04-20 14:34 55.85212 44.12392 37751 ft 445 kts 270°
2026-04-20 14:35 55.85380 44.01306 37751 ft 445 kts 269°
2026-04-20 14:35 55.85538 43.90287 37762 ft 445 kts 269°
2026-04-20 14:36 55.85687 43.79258 37762 ft 445 kts 269°
2026-04-20 14:36 55.85827 43.68149 37769 ft 446 kts 269°
2026-04-20 14:37 55.85958 43.57122 37780 ft 446 kts 269°